Zurück zum Katalog

STARLINK-6206

AktivKommunikationVLEO
NORAD 56876·PAYLOAD·🇺🇸 United States

Gestartet Jun 12, 2023 von Cape Canaveral Space Force Station

Loading…

Nächste Überflüge (nächste 24 Stunden)

TLE

AktuellSource: CelesTrak SupGP

Epoche: Sep 15, 2026, 02:29 UTC

1 56876C 23083A   26258.10395833  .00024741  00000+0  89617-3 0  2582
2 56876  43.0018  95.7036 0001933 269.2688 187.8261 15.27563798    14

Verfolge STARLINK-6206 in Echtzeit mit AllMySat

Download on the App Store